Wind_Speed
133 133 135 129 119 114 111 110 113 108 99 107 106 96 84 85 70 69 65 66 66 63 65 68 71 72 66 62 67 69 70 69 65 65 67 67 68 70 73 75 75 73 76 75
133 133 133 130 128 119 119 116 110 113 112 113 103 95 91 89 78 79 71 70 72 73 70 69 74 74 67 72 75 74 73 69 71 69 69 70 69 73 74 76 77 78 80 85
125 136 135 136 135 128 122 124 115 116 120 114 104 98 94 92 85 84 81 78 77 73 76 74 76 77 70 75 76 73 75 76 76 78 79 76 76 82 80 80 79 82 83 84
125 132 136 135 138 136 133 125 120 118 111 109 100 100 99 94 91 82 85 85 80 82 78 80 77 80 80 83 82 82 81 83 85 84 85 80 84 83 84 84 86 87 87 88
120 131 141 142 140 141 137 132 126 121 111 106 107 103 93 96 93 85 81 78 81 80 84 81 81 87 78 84 87 91 93 89 89 86 87 89 90 89 90 90 91 92 95 96
113 125 135 144 147 145 142 139 128 123 120 115 111 99 94 95 96 92 86 81 79 82 77 81 82 81 85 89 94 96 97 94 92 92 93 97 95 93 95 96 98 100 102 102
106 121 133 140 153 146 144 137 135 131 125 123 110 101 97 93 92 89 84 85 81 82 85 82 86 88 95 102 104 103 103 98 97 98 98 96 97 94 95 102 101 103 106 108
101 113 126 135 153 147 146 142 141 134 127 120 110 108 98 94 95 97 89 91 88 86 88 87 90 97 104 105 102 102 102 105 106 105 104 102 98 97 96 99 104 107 112 116
94 107 119 131 138 140 146 147 142 137 125 128 117 114 105 105 102 97 96 94 97 96 94 93 94 101 105 108 105 106 108 109 109 110 108 105 103 103 104 110 110 114 119 122
88 99 111 124 132 134 146 149 146 142 132 123 121 121 114 110 108 105 100 101 105 99 98 102 100 103 102 99 107 113 114 112 114 115 116 112 109 107 112 114 116 123 127 129
82 91 104 114 127 134 146 152 149 141 130 127 119 125 127 119 114 111 106 110 110 105 107 107 105 107 111 116 116 116 117 116 115 118 117 115 117 114 120 119 125 127 127 131
75 82 92 102 116 127 127 137 145 143 144 131 131 127 124 123 118 112 113 113 114 112 111 113 111 114 117 120 119 119 122 119 120 121 123 120 120 119 120 124 129 131 134 137
64 72 79 89 102 114 123 135 142 146 144 142 136 121 126 125 123 119 118 116 117 117 114 119 116 116 119 122 125 122 123 125 125 127 129 126 125 124 127 132 136 137 140 143
62 69 73 82 93 107 123 126 127 133 145 143 145 140 133 128 123 121 122 119 119 120 121 123 120 120 124 125 128 130 131 129 130 127 126 128 129 132 134 138 140 144 145 148
58 65 74 82 95 104 104 114 122 134 149 143 141 141 141 134 125 125 124 125 124 127 126 128 127 127 129 130 130 129 131 132 131 129 130 130 133 137 141 143 146 147 149 152
54 61 66 75 80 89 97 110 116 123 130 149 151 145 141 135 133 134 130 128 129 130 129 130 129 131 131 130 131 135 134 133 134 135 132 134 140 142 144 148 148 152 155 157
50 57 66 73 83 92 95 105 114 123 127 130 140 146 146 142 142 139 134 134 134 134 133 130 130 132 132 134 136 138 138 137 136 137 138 140 145 147 148 151 153 155 158 162
46 53 61 68 74 78 88 96 105 113 122 129 135 140 143 145 145 144 143 140 136 136 137 134 132 134 133 135 138 138 137 140 141 141 144 148 149 150 152 153 156 161 165 164
41 46 51 56 56 64 75 82 88 93 98 106 115 127 136 141 145 146 146 145 141 138 138 137 137 138 140 140 142 142 143 142 144 147 149 152 152 154 154 157 162 163 165 159
40 45 49 52 58 64 71 74 78 83 90 97 103 111 121 130 133 135 141 143 140 137 138 140 140 140 141 142 144 145 146 148 151 152 152 155 155 157 157 160 163 159 155 140
40 44 49 52 56 61 65 69 72 76 81 87 95 102 109 117 124 132 136 138 139 140 141 142 144 144 145 146 148 149 151 152 153 153 155 158 159 161 162 161 151 132 117 109
38 42 46 49 53 56 60 64 68 72 78 85 93 99 105 111 118 124 131 136 139 142 142 144 147 148 148 149 150 152 155 157 160 161 159 158 153 153 138 123 110 103 96 93
38 41 41 44 47 51 55 58 62 66 72 79 86 93 100 105 112 119 127 133 136 138 140 142 143 145 147 149 150 152 153 153 153 149 147 138 122 111 103 96 91 86 82 78
30 35 39 43 46 49 50 51 55 58 63 69 76 82 89 95 101 107 115 123 130 137 140 141 144 145 148 150 148 145 139 131 122 115 106 99 94 90 86 81 76 71 70 66
24 25 29 34 38 42 46 50 54 57 60 63 66 70 75 79 84 88 94 101 105 109 114 113 115 114 114 111 108 104 101 95 89 86 85 82 79 76 72 70 68 66 63 61
20 23 26 28 30 32 35 37 40 43 47 50 53 56 59 63 67 70 73 75 77 78 81 82 84 83 83 82 80 78 78 79 78 75 73 73 70 67 66 64 63 62 60 60
16 18 21 24 27 29 32 34 36 38 39 41 43 45 47 50 52 54 55 56 60 63 64 66 67 68 70 71 72 71 70 70 69 67 65 64 62 61 60 59 59 58 57 57
Wind_Direction
216 215 216 213 211 214 214 218 221 227 226 229 231 230 232 234 233 235 242 250 255 247 249 258 260 264 260 264 266 267 265 266 264 265 269 271 272 275 278 278 277 277 278 282
214 214 213 210 209 212 214 214 220 225 228 230 231 230 230 230 230 233 239 242 245 249 257 255 261 266 259 263 272 269 270 267 267 269 271 269 270 276 278 278 280 283 283 287
213 214 213 210 210 210 214 214 216 224 227 228 227 230 229 229 231 234 236 241 245 253 258 258 262 266 260 263 268 270 271 270 273 274 274 273 274 276 279 282 283 283 288 287
212 211 211 210 213 211 214 212 214 221 226 228 229 231 232 233 235 237 239 241 243 247 249 259 262 262 260 263 265 268 273 275 276 277 277 277 279 275 277 278 284 288 284 289
210 210 209 212 212 212 214 212 214 218 220 222 228 230 233 235 236 239 240 242 244 244 249 254 257 260 261 264 263 268 271 273 274 276 275 275 280 281 281 284 286 286 286 289
208 209 209 211 213 212 212 215 215 218 221 224 228 229 232 236 236 239 238 239 243 246 249 252 257 255 262 261 261 267 269 273 275 276 277 280 281 283 282 284 286 286 290 290
206 207 209 209 213 212 213 215 216 219 222 224 226 229 230 231 237 236 239 242 244 246 249 254 256 257 257 262 266 269 272 273 275 276 276 278 279 284 284 282 287 288 289 292
205 206 208 208 211 214 213 215 216 218 223 222 224 228 226 227 233 236 236 240 243 244 246 253 256 256 258 261 263 267 269 271 274 276 278 280 282 282 283 284 286 290 292 293
204 205 207 207 210 212 210 214 215 218 218 223 225 226 227 231 233 237 240 240 242 246 247 253 257 259 260 262 266 269 271 273 274 275 277 280 281 283 284 285 289 290 291 293
204 205 206 207 208 210 212 214 216 218 219 223 223 226 228 229 232 234 238 241 243 244 249 253 257 258 259 261 263 267 268 272 273 275 278 280 282 283 286 287 288 288 291 293
203 204 205 207 207 209 213 213 215 217 218 221 221 224 229 229 231 236 237 240 242 245 249 251 254 255 257 261 262 263 266 270 273 275 278 281 283 286 286 287 286 289 292 293
203 204 205 207 207 210 212 214 216 218 222 216 220 228 231 230 233 235 238 241 245 247 249 249 254 255 256 260 260 264 266 269 273 276 278 281 281 283 286 288 289 291 292 294
201 201 205 207 208 210 211 213 215 217 220 221 220 221 229 231 233 235 237 241 245 247 251 251 255 255 256 260 260 263 267 270 272 274 276 279 283 284 286 286 288 290 292 294
196 197 198 203 206 210 212 214 216 218 217 218 220 223 226 230 233 235 238 242 243 247 250 250 255 257 257 259 261 263 266 269 271 275 277 279 282 283 284 285 287 289 292 294
194 194 196 198 204 208 210 214 215 217 218 222 223 225 228 228 232 236 240 242 242 245 249 250 253 256 257 259 262 265 266 268 271 273 276 279 281 281 284 286 288 291 293 294
194 196 197 199 202 206 209 213 215 217 220 222 223 226 228 230 231 234 237 241 244 245 248 251 255 256 258 261 263 265 267 268 271 274 277 279 280 281 284 286 289 291 293 295
192 193 194 197 202 206 207 210 214 217 221 221 220 223 227 232 233 235 237 240 243 246 248 252 254 256 259 261 262 264 266 269 273 275 277 278 279 281 284 287 289 292 294 295
191 193 198 201 205 207 210 212 215 217 219 221 222 223 226 229 232 235 238 239 241 245 248 252 254 257 260 262 263 265 267 270 271 274 277 278 281 283 285 288 291 292 293 295
195 199 203 208 207 209 213 217 219 222 225 227 228 227 229 233 235 236 238 240 241 244 247 250 253 256 258 260 262 265 267 269 271 274 276 278 281 283 286 288 289 290 293 294
201 202 206 209 211 212 217 221 221 222 223 224 227 229 233 235 235 237 238 240 243 244 247 250 253 256 259 260 262 265 266 268 270 273 276 278 281 282 284 287 290 292 291 291
209 211 213 214 215 218 221 223 225 225 225 225 227 229 231 234 237 239 241 242 243 244 247 249 252 255 257 261 263 264 267 269 272 274 275 277 280 282 284 287 288 288 288 288
214 220 222 224 224 225 225 227 229 230 230 230 229 231 233 235 236 237 239 240 242 245 247 249 252 255 258 261 264 267 269 271 274 276 278 280 283 285 286 285 285 286 287 287
206 208 214 222 229 232 235 234 235 235 235 236 236 237 238 239 240 241 243 244 246 248 250 252 255 258 260 263 267 270 272 275 276 278 280 283 283 283 283 285 286 287 286 285
217 219 219 220 219 221 223 227 231 234 238 239 241 242 242 244 246 247 248 249 250 252 253 255 257 260 262 266 268 270 273 276 278 278 279 281 282 282 283 283 284 283 282 284
229 225 224 224 227 229 231 232 232 232 232 234 235 236 238 240 242 244 246 249 250 252 254 256 259 261 264 267 270 271 273 275 278 279 277 278 281 281 281 281 282 283 286 286
226 229 233 235 235 235 234 235 237 238 240 241 243 246 248 249 250 252 253 254 256 258 260 262 262 263 266 268 272 274 274 274 276 279 277 278 279 281 282 284 284 284 285 286
221 221 223 225 228 232 236 239 240 243 244 246 248 249 251 251 253 254 254 259 259 260 262 264 268 268 267 269 271 273 273 274 276 277 277 279 281 282 282 283 283 284 284 284
Height
10271 10300 10330 10358 10387 10406 10418 10429 10433 10455 10462 10462 10475 10506 10531 10532 10537 10545 10551 10560 10562 10568 10574 10576 10579 10582 10588 10591 10589 10590 10589 10595 10601 10602 10602 10603 10603 10602 10599 10599 10599 10603 10600 10595
10241 10273 10302 10332 10357 10378 10399 10401 10421 10428 10432 10439 10473 10493 10503 10512 10523 10531 10540 10549 10550 10554 10558 10564 10565 10565 10579 10575 10572 10573 10577 10580 10578 10585 10589 10587 10587 10586 10584 10581 10583 10584 10582 10576
10214 10246 10276 10304 10330 10351 10363 10374 10392 10398 10398 10430 10454 10470 10486 10497 10506 10515 10526 10534 10537 10543 10546 10550 10553 10552 10559 10559 10558 10559 10559 10561 10565 10567 10563 10573 10574 10566 10565 10561 10567 10564 10566 10560
10189 10218 10248 10279 10302 10320 10326 10346 10361 10379 10392 10425 10454 10456 10472 10480 10490 10504 10510 10520 10526 10529 10533 10535 10538 10537 10545 10542 10543 10541 10542 10545 10544 10547 10546 10552 10550 10552 10545 10544 10544 10539 10536 10539
10162 10192 10208 10249 10278 10288 10299 10327 10346 10372 10397 10409 10422 10437 10456 10472 10482 10488 10498 10508 10507 10510 10517 10522 10523 10519 10526 10522 10524 10523 10524 10527 10527 10530 10531 10530 10530 10532 10530 10527 10523 10519 10513 10516
10138 10167 10194 10220 10240 10258 10271 10301 10336 10356 10375 10391 10402 10430 10451 10462 10462 10472 10479 10485 10489 10494 10502 10505 10510 10507 10504 10503 10501 10502 10507 10509 10509 10509 10509 10507 10513 10512 10506 10501 10498 10493 10488 10485
10120 10145 10169 10195 10214 10239 10266 10301 10322 10338 10356 10372 10400 10421 10430 10439 10451 10454 10459 10464 10471 10477 10486 10485 10485 10485 10484 10481 10483 10485 10487 10489 10488 10486 10487 10489 10493 10495 10488 10477 10476 10470 10462 10458
10104 10125 10148 10172 10195 10221 10254 10277 10298 10321 10340 10368 10382 10396 10411 10417 10423 10429 10440 10448 10454 10462 10465 10462 10462 10463 10464 10464 10466 10469 10468 10467 10468 10465 10465 10468 10474 10474 10466 10458 10452 10448 10438 10430
10090 10110 10130 10153 10177 10206 10234 10258 10278 10301 10323 10347 10374 10378 10389 10400 10408 10416 10423 10429 10433 10439 10442 10445 10442 10443 10446 10445 10449 10449 10448 10446 10445 10447 10445 10447 10449 10449 10446 10435 10431 10425 10417 10407
10078 10097 10116 10139 10164 10192 10217 10239 10261 10284 10308 10333 10347 10359 10372 10380 10389 10395 10403 10406 10410 10421 10427 10426 10426 10428 10425 10423 10426 10426 10425 10427 10425 10422 10422 10425 10424 10427 10417 10413 10409 10402 10393 10384
10069 10086 10105 10126 10152 10175 10191 10219 10247 10273 10298 10318 10329 10335 10344 10358 10365 10375 10385 10386 10392 10402 10403 10406 10408 10407 10408 10405 10406 10407 10404 10402 10405 10402 10404 10405 10397 10403 10393 10392 10382 10376 10370 10362
10064 10081 10099 10119 10141 10162 10185 10213 10234 10260 10277 10299 10308 10320 10331 10339 10346 10358 10363 10367 10373 10379 10380 10383 10386 10389 10389 10387 10384 10387 10385 10385 10385 10385 10382 10383 10378 10376 10372 10363 10356 10350 10343 10334
10062 10078 10096 10116 10135 10155 10178 10193 10214 10237 10264 10281 10290 10302 10307 10317 10329 10335 10339 10346 10354 10360 10362 10363 10365 10368 10369 10367 10366 10370 10368 10367 10366 10363 10360 10362 10358 10355 10347 10341 10328 10323 10318 10309
10054 10070 10088 10107 10126 10143 10154 10176 10210 10225 10243 10255 10267 10280 10287 10299 10310 10315 10323 10335 10338 10338 10341 10343 10345 10345 10345 10347 10346 10350 10350 10351 10342 10342 10342 10338 10337 10330 10324 10316 10309 10302 10293 10285
10052 10066 10079 10094 10104 10122 10149 10173 10192 10208 10223 10239 10255 10266 10274 10284 10292 10299 10303 10308 10311 10312 10315 10319 10323 10324 10325 10328 10327 10330 10330 10326 10325 10324 10320 10320 10313 10306 10296 10291 10286 10277 10267 10258
10052 10065 10079 10092 10108 10123 10141 10158 10175 10194 10207 10217 10232 10247 10254 10264 10269 10274 10280 10288 10291 10295 10298 10300 10301 10303 10309 10309 10310 10306 10308 10308 10304 10299 10299 10297 10287 10282 10274 10265 10260 10249 10240 10231
10053 10064 10074 10084 10093 10104 10127 10142 10159 10171 10179 10195 10210 10224 10237 10246 10248 10255 10259 10266 10271 10274 10278 10282 10283 10286 10287 10287 10288 10288 10287 10285 10283 10278 10273 10272 10264 10257 10253 10244 10232 10222 10214 10200
10057 10065 10073 10082 10092 10107 10118 10130 10140 10150 10159 10175 10191 10206 10215 10222 10226 10233 10240 10247 10252 10256 10259 10262 10265 10266 10266 10268 10268 10264 10266 10266 10261 10256 10250 10242 10238 10233 10225 10217 10207 10196 10185 10173
10059 10068 10077 10087 10100 10108 10114 10125 10137 10149 10163 10175 10186 10195 10201 10208 10211 10216 10223 10227 10233 10237 10239 10243 10246 10242 10243 10245 10242 10241 10239 10241 10238 10232 10226 10219 10215 10208 10202 10192 10181 10171 10160 10147
10060 10068 10075 10084 10091 10101 10109 10118 10128 10139 10146 10155 10166 10175 10183 10189 10192 10199 10206 10211 10215 10218 10221 10224 10225 10223 10222 10220 10219 10219 10216 10214 10211 10207 10204 10197 10192 10183 10175 10165 10155 10145 10135 10124
10059 10066 10072 10079 10086 10093 10101 10109 10117 10125 10134 10143 10150 10157 10164 10169 10177 10182 10188 10189 10192 10197 10199 10200 10197 10199 10197 10194 10193 10190 10187 10187 10185 10183 10178 10171 10164 10157 10149 10139 10129 10117 10105 10094
10057 10063 10068 10074 10080 10087 10094 10099 10107 10113 10121 10128 10135 10140 10145 10152 10155 10159 10163 10166 10170 10173 10174 10174 10174 10175 10175 10172 10169 10166 10162 10159 10153 10146 10143 10137 10132 10126 10116 10105 10096 10087 10079 10069
10047 10053 10059 10066 10073 10079 10085 10091 10095 10101 10107 10112 10119 10125 10131 10136 10140 10143 10146 10149 10151 10151 10154 10152 10155 10155 10151 10149 10145 10140 10134 10128 10119 10116 10114 10107 10100 10091 10083 10076 10069 10063 10053 10045
10042 10046 10050 10054 10060 10064 10070 10076 10080 10087 10093 10099 10104 10110 10114 10116 10121 10125 10128 10131 10132 10136 10134 10135 10133 10130 10129 10124 10118 10112 10106 10102 10097 10094 10088 10080 10070 10063 10058 10051 10044 10039 10030 10025
10035 10039 10042 10046 10050 10054 10058 10062 10066 10070 10074 10078 10082 10086 10090 10094 10097 10100 10101 10103 10106 10106 10105 10104 10101 10101 10100 10096 10092 10087 10082 10079 10074 10067 10058 10052 10047 10042 10035 10028 10022 10017 10012 10007
10030 10032 10035 10037 10040 10043 10046 10050 10054 10058 10061 10065 10069 10072 10075 10077 10081 10082 10083 10084 10086 10086 10083 10082 10078 10076 10075 10072 10068 10064 10059 10053 10047 10043 10036 10031 10027 10022 10015 10008 10002 9998 9994 9989
10026 10028 10030 10031 10033 10035 10037 10040 10043 10045 10049 10051 10053 10055 10057 10059 10061 10062 10063 10066 10064 10061 10062 10059 10058 10056 10051 10048 10045 10041 10037 10032 10027 10023 10018 10013 10008 10002 9997 9991 9985 9982 9977 9973